CDT,Max TemperatureF,Mean TemperatureF,Min TemperatureF,Max Dew PointF,MeanDew PointF,Min DewpointF,Max Humidity, Mean Humidity, Min Humidity, Max Sea Level PressureIn, Mean Sea Level PressureIn, Min Sea Level PressureIn, Max VisibilityMiles, Mean VisibilityMiles, Min VisibilityMiles, Max Wind SpeedMPH, Mean Wind SpeedMPH, Max Gust SpeedMPH,PrecipitationIn, CloudCover, Events, WindDirDegrees
2013-4-1,28,16,5,18,9,1,93,64,37,30.04,29.99,29.87,10,8,1,16,9,23,0.00,5,Snow,311
2013-4-2,32,16,0,16,5,-6,92,59,30,30.25,30.14,30.05,10,10,10,15,5,25,0.00,1,,306
2013-4-3,41,18,-4,14,2,-8,92,50,18,30.37,30.25,30.05,10,10,10,13,3,22,0.00,0,,205
2013-4-4,42,36,30,28,21,14,80,55,36,30.06,29.97,29.91,10,10,7,16,9,26,0.00,4,Snow,282
2013-4-5,37,26,14,19,13,3,100,54,24,30.22,30.14,30.06,10,10,10,8,3,,0.00,2,,17
2013-4-6,39,34,30,34,30,14,100,87,48,30.07,29.75,29.52,10,5,1,15,7,25,0.17,8,Rain-Snow,150
2013-4-7,35,32,30,32,30,28,100,90,75,29.91,29.80,29.53,10,8,1,13,7,21,0.04,6,Snow,325
2013-4-8,35,34,32,36,33,30,100,96,87,30.01,29.86,29.79,10,5,0,7,2,,0.29,8,Fog-Rain-Snow,105
2013-4-9,35,32,28,34,28,18,100,85,52,30.16,30.08,30.00,10,7,0,14,5,21,0.00,6,Fog-Snow,18
2013-4-10,41,34,28,23,17,12,80,55,31,30.17,30.11,30.05,10,10,10,13,8,21,0.00,3,,45
2013-4-11,33,30,26,25,20,14,93,66,48,30.06,29.89,29.72,10,8,1,17,11,26,0.00,6,Snow,77
2013-4-12,32,29,26,28,25,23,93,85,69,29.74,29.67,29.62,10,4,1,14,7,17,0.10,8,Snow,41
2013-4-13,32,24,15,27,22,14,93,81,60,29.93,29.76,29.67,10,7,1,13,4,18,0.04,6,Snow,313
2013-4-14,37,22,8,32,22,3,100,83,52,29.98,29.88,29.68,10,8,0,15,4,23,0.00,5,Snow,108
2013-4-15,44,38,32,34,29,23,100,79,43,29.84,29.68,29.56,10,8,3,18,5,29,0.38,7,,215
2013-4-16,41,34,28,30,26,21,93,70,45,30.34,30.08,29.83,10,10,3,13,7,23,0.00,6,Snow,296
2013-4-17,41,31,21,32,26,19,100,78,57,30.37,30.23,30.00,10,10,4,10,4,17,0.00,5,,92
2013-4-18,33,32,32,32,32,32,100,100,93,30.00,29.63,29.25,10,5,1,13,7,20,0.18,8,Snow,36
2013-4-19,32,26,21,32,23,18,100,90,74,29.82,29.38,29.12,5,2,0,20,11,29,0.00,8,Snow,344
2013-4-20,30,16,1,19,14,0,93,75,51,30.35,30.13,29.83,10,9,2,14,6,20,0.01,3,Snow,319
2013-4-21,37,24,10,30,23,9,93,77,64,30.39,30.28,30.13,10,10,5,17,6,28,0.00,6,,167
2013-4-22,37,34,32,37,34,32,100,96,93,30.19,30.13,30.04,10,5,1,12,6,18,0.10,8,Rain-Snow,29
2013-4-23,33,25,17,32,27,14,100,88,69,30.04,29.96,29.89,10,6,1,17,8,24,0.23,6,Snow,350
2013-4-24,44,25,6,32,18,5,100,65,37,29.96,29.90,29.85,10,10,1,15,3,21,0.01,3,Snow,260
2013-4-25,44,37,30,32,24,14,100,64,29,30.18,30.03,29.86,10,10,1,13,5,20,0.03,4,Snow,273
2013-4-26,60,44,28,36,31,23,100,67,34,30.18,30.11,30.05,10,10,2,13,3,22,0.08,3,Rain,207
2013-4-27,66,48,30,41,33,28,100,61,28,30.15,30.08,29.97,10,10,10,10,2,,0.00,1,,211
2013-4-28,66,50,35,43,38,34,100,62,30,29.97,29.86,29.75,10,10,4,15,4,22,0.01,1,Rain,197
2013-4-29,68,55,42,54,47,43,100,80,40,29.81,29.77,29.71,10,6,0,14,2,21,0.17,5,Fog-Rain,174
2013-4-30,78,64,50,54,48,37,100,66,25,29.92,29.68,29.55,10,8,3,17,7,28,0.00,3,Rain,182